TimeCST,TemperatureF,Dew PointF,Humidity,Sea Level PressureIn,VisibilityMPH,Wind Direction,Wind SpeedMPH,Gust SpeedMPH,PrecipitationIn,Events,Conditions,WindDirDegrees,DateUTC
12:06 AM,55.4,53.6,94,29.87,3.0,SW,3.5,-,N/A,,Overcast,220,2012-12-08 06:06:00
12:54 AM,57.0,54.0,89,29.86,5.0,SSW,4.6,-,N/A,,Overcast,200,2012-12-08 06:54:00
1:54 AM,57.0,54.0,89,29.85,4.0,SSW,5.8,-,0.00,,Overcast,210,2012-12-08 07:54:00
2:45 AM,57.2,53.6,88,29.85,4.0,SW,5.8,-,N/A,,Overcast,230,2012-12-08 08:45:00
2:54 AM,57.0,54.0,89,29.85,4.0,WSW,5.8,-,N/A,,Overcast,240,2012-12-08 08:54:00
3:14 AM,55.4,53.6,94,29.85,4.0,WSW,4.6,-,N/A,,Overcast,240,2012-12-08 09:14:00
3:50 AM,57.2,53.6,88,29.85,5.0,WSW,5.8,-,N/A,,Overcast,240,2012-12-08 09:50:00
3:54 AM,57.0,54.0,89,29.85,5.0,WSW,5.8,-,N/A,,Overcast,250,2012-12-08 09:54:00
4:01 AM,57.2,53.6,88,29.85,5.0,WSW,4.6,-,N/A,,Overcast,250,2012-12-08 10:01:00
4:15 AM,57.2,53.6,88,29.85,5.0,West,4.6,-,N/A,,Overcast,270,2012-12-08 10:15:00
4:29 AM,55.4,53.6,94,29.85,4.0,Calm,Calm,-,N/A,,Overcast,0,2012-12-08 10:29:00
4:54 AM,55.9,53.1,90,29.86,4.0,Calm,Calm,-,N/A,,Overcast,0,2012-12-08 10:54:00
5:54 AM,55.9,53.1,90,29.88,3.0,North,10.4,-,0.00,Rain,Light Rain,350,2012-12-08 11:54:00
6:26 AM,53.6,50.0,88,29.89,3.0,North,5.8,-,0.00,,Overcast,10,2012-12-08 12:26:00
6:54 AM,53.1,50.0,89,29.91,5.0,North,8.1,-,0.00,,Overcast,350,2012-12-08 12:54:00
7:08 AM,53.6,48.2,82,29.91,3.0,North,5.8,-,N/A,,Overcast,350,2012-12-08 13:08:00
7:54 AM,53.1,48.9,86,29.93,5.0,Calm,Calm,-,0.00,,Overcast,0,2012-12-08 13:54:00
8:51 AM,53.6,50.0,88,29.93,5.0,Calm,Calm,-,N/A,,Overcast,0,2012-12-08 14:51:00
8:54 AM,54.0,50.0,86,29.93,5.0,Calm,Calm,-,N/A,,Overcast,0,2012-12-08 14:54:00
9:54 AM,55.0,50.0,83,29.95,6.0,NW,5.8,-,N/A,,Haze,310,2012-12-08 15:54:00
10:24 AM,55.4,50.0,82,29.96,9.0,NNW,5.8,-,N/A,,Overcast,330,2012-12-08 16:24:00
10:52 AM,53.6,48.2,82,29.96,6.0,NNW,8.1,-,N/A,,Overcast,330,2012-12-08 16:52:00
10:54 AM,53.1,48.9,86,29.96,6.0,NW,5.8,-,N/A,,Overcast,320,2012-12-08 16:54:00
11:25 AM,53.6,48.2,82,29.96,5.0,NNW,5.8,-,N/A,,Haze,330,2012-12-08 17:25:00
11:54 AM,55.0,48.9,80,29.96,5.0,WNW,5.8,-,N/A,,Haze,290,2012-12-08 17:54:00
12:49 PM,51.8,48.2,88,29.95,5.0,NNW,8.1,-,N/A,,Overcast,340,2012-12-08 18:49:00
12:54 PM,52.0,48.0,86,29.95,5.0,NNW,8.1,-,N/A,,Overcast,340,2012-12-08 18:54:00
1:54 PM,51.1,46.0,83,29.95,7.0,North,9.2,-,N/A,,Overcast,350,2012-12-08 19:54:00
2:03 PM,51.8,46.4,82,29.95,5.0,North,8.1,-,N/A,,Overcast,350,2012-12-08 20:03:00
2:54 PM,51.1,46.0,83,29.96,5.0,North,8.1,-,N/A,,Haze,10,2012-12-08 20:54:00
3:20 PM,51.8,44.6,76,29.96,5.0,North,8.1,-,N/A,,Haze,10,2012-12-08 21:20:00
3:41 PM,50.0,44.6,82,29.97,5.0,NNE,12.7,-,N/A,,Haze,20,2012-12-08 21:41:00
3:54 PM,50.0,45.0,83,29.97,6.0,North,8.1,-,N/A,,Haze,10,2012-12-08 21:54:00
4:17 PM,50.0,44.6,82,29.97,6.0,NNE,5.8,-,N/A,,Haze,30,2012-12-08 22:17:00
4:54 PM,50.0,44.1,80,29.98,10.0,NNE,5.8,-,N/A,,Overcast,30,2012-12-08 22:54:00
5:54 PM,50.0,44.1,80,30.00,5.0,NNE,4.6,-,N/A,,Haze,30,2012-12-08 23:54:00
6:54 PM,48.9,43.0,80,30.01,10.0,NNE,8.1,-,N/A,,Overcast,30,2012-12-09 00:54:00
7:54 PM,48.9,43.0,80,30.00,6.0,NNE,6.9,-,N/A,,Haze,30,2012-12-09 01:54:00
8:24 PM,48.2,42.8,82,30.00,10.0,NE,8.1,-,N/A,,Overcast,50,2012-12-09 02:24:00
8:33 PM,48.2,42.8,82,29.99,10.0,NE,6.9,-,N/A,,Overcast,40,2012-12-09 02:33:00
8:54 PM,48.0,43.0,83,29.99,10.0,ENE,5.8,-,N/A,,Overcast,70,2012-12-09 02:54:00
9:24 PM,48.2,42.8,82,29.98,10.0,ENE,5.8,-,N/A,,Overcast,70,2012-12-09 03:24:00
9:54 PM,48.0,43.0,83,30.00,10.0,ENE,3.5,-,N/A,,Overcast,60,2012-12-09 03:54:00
10:54 PM,48.0,43.0,83,29.98,9.0,ENE,5.8,-,N/A,,Overcast,60,2012-12-09 04:54:00
11:36 PM,48.2,44.6,87,29.98,9.0,Calm,Calm,-,N/A,,Overcast,0,2012-12-09 05:36:00
11:54 PM,48.9,44.1,83,29.98,9.0,NE,3.5,-,N/A,,Overcast,50,2012-12-09 05:54:00